Regional Weather Roundup
Issued by NWS

Home | Current Version | Previous Version | Text Only | Print | Product List | Glossary Off
Versions: 1 2 3 4 5 6 7 8 9 10 11 12 13 14 15 16 17 18 19 20 21 22 23 24 25 26 27 28 29 30 31 32 33 34 35 36 37 38 39 40 41 42 43 44 45 46 47 48 49 50

000
ASUS43 KFSD 261202
RWRSD

WEATHER ROUNDUP FOR SOUTH DAKOTA
NATIONAL WEATHER SERVICE SIOUX FALLS SD
600 AM CST FRI DEC 26 2014

NOTE: "FAIR" INDICATES FEW OR NO CLOUDS BELOW 12,000 FEET WITH NO
SIGNIFICANT WEATHER AND/OR OBSTRUCTIONS TO VISIBILITY.


SDZ001>005-009-010-012>017-261300-
NORTHWEST AND NORTH CENTRAL SOUTH DAKOTA

CITY           SKY/WX    TMP DP  RH WIND       PRES   REMARKS
BUFFALO          N/A     19  14  81 N12       29.98R WCI   7
FAITH            N/A     21  15  78 N14       30.05S WCI   8
MOBRIDGE       CLOUDY    24  20  84 N9        30.06R WCI  14
$$

SDZ012>016-024>037-041>051-057-063-072>074-261300-
SOUTHWEST AND SOUTH CENTRAL SOUTH DAKOTA

CITY           SKY/WX    TMP DP  RH WIND       PRES   REMARKS
RAPID CTY ARPT CLOUDY    20  16  84 N9        30.04R WCI   9
PIERRE         CLOUDY    25  21  85 N13       30.08R WCI  14
CUSTER         CLOUDY    15  12  88 CALM      29.88S
ELLSWORTH AFB  CLOUDY    20  17  89 N9        30.03  WCI   9
PHILIP         CLOUDY    23  17  78 NW6       30.09R WCI  16
PINE RIDGE     LGT SNOW  20  16  84 N10       30.03R FOG     WCI   9
WINNER         LGT SNOW  25  22  88 N13       30.04R FOG     WCI  14
$$

SDZ004>011-016>023-039-040-261300-
NORTHEAST SOUTH DAKOTA

CITY           SKY/WX    TMP DP  RH WIND       PRES   REMARKS
ABERDEEN       CLOUDY    25  20  81 N15       30.08R WCI  13
WATERTOWN      LGT SNOW  23  20  88 N12       30.00R FOG     WCI  12
SISSETON         N/A     24  21  88 N17       30.04R WCI  11
$$

SDZ017-020-022-023-036>040-048>070-261300-
SOUTHEAST SOUTH DAKOTA

CITY           SKY/WX    TMP DP  RH WIND       PRES   REMARKS
SIOUX FALLS    CLOUDY    27  23  85 N17       29.97R WCI  14
HURON          LGT SNOW  24  22  91 N13       30.05R FOG     WCI  12
MITCHELL         N/A     27  23  85 N13       30.04R WCI  16
YANKTON        CLOUDY    28  25  86 N16       30.00R WCI  17
$$

ABBREVIATIONS USED IN REMARKS
   TC - TEMPERATURE IN CELSIUS
  WCI - WIND CHILL INDEX
   HX - HEAT INDEX
  VSB - VISIBILITY




USA.gov is the U.S. government's official web portal to all federal, state and local government web resources and services.